FW2698 Weather Reports


time (UTC)temp
F
wind
direction
speed
knots
gust
knots
rain 1hr
in
rain 24hr
in
rain mn
in
humidity
%
barometer
mb
20260504034509 55 290 0.9 5.2 0.00 0.06 0.06 71 1004.2
20260504033010 56 298 2.6 5.2 0.00 0.06 0.06 69 1004.2
20260504031509 56 279 0.9 4.3 0.00 0.06 0.06 68 1004.2
20260504030015 57 285 0.0 1.7 0.00 0.06 0.06 67 1004.3
20260504024511 58 270 0.9 4.3 0.00 0.06 0.06 65 1004.1
20260504023008 59 282 0.9 6.1 0.00 0.06 0.06 63 1004.1
20260504021507 59 286 0.9 4.3 0.00 0.06 0.06 62 1004.0
20260504020008 60 267 0.9 5.2 0.00 0.06 0.06 61 1003.9
20260504014512 61 261 1.7 5.2 0.00 0.06 0.06 58 1003.8
20260504013023 62 278 1.7 5.2 0.00 0.06 0.06 56 1003.7
20260504011505 63 309 2.6 9.6 0.00 0.06 0.06 55 1003.5
20260504010007 64 234 1.7 7.0 0.00 0.06 0.06 53 1003.6
20260504004505 65 275 2.6 7.0 0.00 0.06 0.06 51 1003.6
20260504003007 66 267 2.6 8.7 0.00 0.06 0.06 49 1003.6
20260504001504 68 248 4.3 8.7 0.00 0.06 0.06 46 1003.6
20260504000004 69 274 5.2 10.4 0.00 0.06 0.06 44 1003.6
20260503234503 69 276 6.1 11.3 0.00 0.06 0.06 44 1003.6
20260503233003 70 295 5.2 12.2 0.00 0.06 0.06 42 1003.6
20260503231601 70 279 2.6 13.0 0.00 0.06 0.06 42 1003.7
20260503230115 70 313 4.3 10.4 0.00 0.06 0.06 42 1003.8
20260503224606 70 262 6.1 17.4 0.00 0.06 0.06 43 1004.0
20260503223057 70 270 7.0 15.6 0.00 0.06 0.06 42 1004.1
20260503221604 70 277 7.8 15.6 0.00 0.06 0.06 42 1004.0
20260503220054 70 305 3.5 12.2 0.00 0.06 0.06 42 1004.2
20260503214558 69 260 4.3 11.3 0.00 0.06 0.06 42 1004.4
20260503213052 69 305 3.5 14.8 0.00 0.06 0.06 42 1004.4
20260503211550 69 290 5.2 15.6 0.00 0.06 0.06 42 1004.5
20260503210002 69 270 7.0 17.4 0.00 0.06 0.06 40 1004.7
20260503204607 69 320 9.6 16.5 0.00 0.06 0.06 41 1004.8
20260503203103 68 283 5.2 16.5 0.00 0.06 0.06 43 1005.2
20260503201535 67 275 7.8 16.5 0.00 0.06 0.06 43 1005.5
20260503200023 67 274 7.0 19.1 0.00 0.06 0.06 45 1005.9
20260503194603 66 264 9.6 19.1 0.00 0.06 0.06 44 1006.3
20260503193057 65 260 8.7 23.5 0.00 0.06 0.06 46 1006.6
20260503191541 66 226 10.4 20.0 0.00 0.06 0.06 46 1006.8
20260503190033 65 258 7.8 20.0 0.00 0.06 0.06 47 1006.6
20260503184605 63 262 7.8 19.1 0.00 0.06 0.06 52 1007.1
20260503183021 61 286 7.0 15.6 0.00 0.06 0.06 57 1007.4
20260503181605 59 254 7.0 20.0 0.01 0.06 0.06 62 1007.3
20260503180053 58 268 5.2 13.9 0.01 0.06 0.06 68 1007.6
20260503174506 56 230 6.1 13.0 0.01 0.06 0.06 68 1008.0
20260503173002 56 224 4.3 13.9 0.01 0.06 0.06 67 1008.4
20260503171537 56 288 4.3 13.9 0.00 0.05 0.05 69 1008.7
20260503081536 45 295 2.6 6.1 0.00 0.00 0.00 62 1013.2
20260503071526 45 278 1.7 7.0 0.00 0.00 0.00 61 1013.5
20260503054526 45 280 1.7 7.0 0.00 0.00 0.00 60 1014.1
20260503053019 45 263 1.7 6.1 0.00 0.00 0.00 60 1014.3
20260503051506 45 281 1.7 4.3 0.00 0.00 0.00 60 1014.4
20260503050005 45 273 2.6 5.2 0.00 0.00 0.00 60 1014.5
20260503044503 45 258 0.9 5.2 0.00 0.00 0.00 59 1014.6
20260503043002 46 274 1.7 5.2 0.00 0.00 0.00 58 1014.6
20260503041501 46 282 1.7 6.1 0.00 0.00 0.00 58 1014.7
20260503040106 46 279 1.7 5.2 0.00 0.00 0.00 58 1014.9